Date String (YYYY-MM-DD hh:mm:ss) UTC,Instrument flags,absolute air pressure of the measurement (hPa),sample flow rate (lpm),inlet stack bypass flow (lpm),air temperature of the measurement (°C),ambient temperature measured by the external sensor (°C),aerosol sample conditioner tube jacket temperature (°C),OPC LED temperature (°C),internal box temperature (°C),relative humidity of the measurement (%),span deviation,mass concentration of particles derived from Lorenz-Mie calculation of OPC scattering (μg/m³),mass concentration of particles derived from Lorenz-Mie calculation of OPC scattering (μg/m³),mass concentration of particles derived from Lorenz-Mie calculation of OPC scattering (μg/m³)
DateTimeUTC,F1_M11,P_M11,Q1_M11,Q2_M11,T1_M11,T2_M11,T3_M11,T4_M11,T5_M11,U1_M11,ZSPAN_M11,X0_M11,X2_M11,X1_M11
2024-03-20 14:00:00,SystemResetWarning,0829.7,5.00,000.00,019.7,019.1,000.0,028.2,021.5,19.0,0000.0,0013.21,0003.05,0001.60
2024-03-20 14:01:00,SystemResetWarning,0829.7,5.00,000.00,019.7,019.1,000.0,028.2,021.5,18.9,0000.0,0013.25,0003.07,0001.62
2024-03-20 14:02:00,SystemResetWarning,0829.7,4.99,000.00,019.7,019.1,000.0,028.2,021.5,18.9,0000.0,0012.87,0003.02,0001.63
2024-03-20 14:03:00,SystemResetWarning,0829.8,5.00,000.00,019.7,019.1,000.0,028.2,021.5,19.0,0000.0,0011.78,0003.01,0001.65
2024-03-20 14:04:00,SystemResetWarning,0829.8,5.00,000.00,019.7,019.1,000.0,028.2,021.5,18.9,0000.0,0011.76,0003.03,0001.67
2024-03-20 14:05:00,SystemResetWarning,0829.8,5.00,000.00,019.7,019.1,000.0,028.2,021.5,18.9,0000.0,0010.95,0003.00,0001.68
2024-03-20 14:06:00,SystemResetWarning,0829.8,5.00,000.00,019.7,019.1,000.0,028.2,021.5,19.0,0000.0,0010.92,0003.03,0001.71
2024-03-20 14:07:00,SystemResetWarning,0829.9,5.00,000.00,019.7,019.1,000.0,028.2,021.5,19.3,0000.0,0011.33,0003.07,0001.73
2024-03-20 14:08:00,SystemResetWarning,0829.9,5.00,000.00,019.7,019.1,000.0,028.2,021.5,19.4,0000.0,0012.19,0003.06,0001.74
2024-03-20 14:09:00,SystemResetWarning,0829.9,5.00,000.00,019.7,019.1,000.0,028.2,021.5,19.1,0000.0,0012.78,0003.08,0001.75
2024-03-20 14:10:00,SystemResetWarning,0830.0,4.99,000.00,019.7,019.1,000.0,028.2,021.5,19.1,0000.0,0011.95,0003.07,0001.77
2024-03-20 14:11:00,SystemResetWarning,0829.9,5.00,000.00,019.7,019.1,000.0,028.2,021.5,18.7,0000.0,0011.42,0003.08,0001.77
2024-03-20 14:12:00,SystemResetWarning,0829.9,5.01,000.00,019.7,019.2,000.0,028.2,021.5,19.1,0000.0,0011.21,0003.10,0001.77
2024-03-20 14:13:00,SystemResetWarning,0829.9,5.01,000.00,019.7,019.2,000.0,028.2,021.5,18.7,0000.0,0011.20,0003.12,0001.78
2024-03-20 14:14:00,SystemResetWarning,0830.0,5.00,000.00,019.7,019.2,000.0,028.2,021.5,18.6,0000.0,0011.68,0003.16,0001.79
2024-03-20 14:15:00,SystemResetWarning,0830.0,5.00,000.00,019.7,019.2,000.0,028.2,021.5,18.5,0000.0,0012.44,0003.16,0001.77
2024-03-20 14:16:00,SystemResetWarning,0830.0,4.99,000.00,019.7,019.2,000.0,028.2,021.5,18.3,0000.0,0012.44,0003.20,0001.78
2024-03-20 14:17:00,SystemResetWarning,0830.0,5.00,000.00,019.7,019.2,000.0,028.2,021.5,18.7,0000.0,0012.17,0003.24,0001.78
2024-03-20 14:18:00,SystemResetWarning,0830.0,5.00,000.00,019.7,019.2,000.0,028.2,021.5,18.7,0000.0,0011.81,0003.24,0001.79
2024-03-20 14:19:00,SystemResetWarning,0830.0,5.00,000.00,019.7,019.2,000.0,028.2,021.5,18.6,0000.0,0010.81,0003.23,0001.79
2024-03-20 14:20:00,SystemResetWarning,0830.0,5.00,000.00,019.7,019.2,000.0,028.2,021.5,18.5,0000.0,0009.67,0003.24,0001.80
2024-03-20 14:21:00,SystemResetWarning,0830.0,5.00,000.00,019.7,019.2,000.0,028.2,021.5,18.2,0000.0,0010.41,0003.21,0001.79
2024-03-20 14:22:00,SystemResetWarning,0830.0,5.00,000.00,019.7,019.2,000.0,028.2,021.5,18.6,0000.0,0010.94,0003.17,0001.79
2024-03-20 14:23:00,SystemResetWarning,0830.1,5.00,000.00,019.7,019.2,000.0,028.2,021.5,18.4,0000.0,0011.03,0003.15,0001.78
2024-03-20 14:24:00,SystemResetWarning,0830.0,5.00,000.00,019.7,019.2,000.0,028.2,021.6,18.1,0000.0,0011.01,0003.15,0001.79
2024-03-20 14:25:00,SystemResetWarning,0830.0,5.00,000.00,019.7,019.2,000.0,028.2,021.6,18.0,0000.0,0010.56,0003.14,0001.79
2024-03-20 14:26:00,SystemResetWarning,0830.1,5.00,000.00,019.7,019.2,000.0,028.2,021.6,18.0,0000.0,0010.24,0003.11,0001.79
2024-03-20 14:27:00,SystemResetWarning,0830.0,5.00,000.00,019.7,019.2,000.0,028.2,021.6,18.0,0000.0,0010.01,0003.01,0001.78
2024-03-20 14:28:00,SystemResetWarning,0830.0,5.00,000.00,019.8,019.2,000.0,028.2,021.6,18.0,0000.0,0009.78,0002.90,0001.78
2024-03-20 14:29:00,SystemResetWarning,0830.0,5.00,000.00,019.7,019.2,000.0,028.2,021.6,17.8,0000.0,0009.83,0002.88,0001.76
2024-03-20 14:30:00,SystemResetWarning,0830.0,5.00,000.00,019.8,019.2,000.0,028.2,021.6,17.7,0000.0,0010.09,0002.87,0001.75
2024-03-20 14:31:00,SystemResetWarning,0830.0,5.00,000.00,019.8,019.2,000.0,028.2,021.6,17.9,0000.0,0010.41,0002.88,0001.74
2024-03-20 14:32:00,SystemResetWarning,0830.0,5.00,000.00,019.8,019.2,000.0,028.2,021.6,18.5,0000.0,0009.88,0002.91,0001.72
2024-03-20 14:33:00,SystemResetWarning,0830.0,5.00,000.00,019.8,019.3,000.0,028.3,021.6,18.3,0000.0,0009.99,0002.94,0001.72
2024-03-20 14:34:00,SystemResetWarning,0830.0,5.00,000.00,019.8,019.3,000.0,028.3,021.6,17.9,0000.0,0010.25,0002.99,0001.72
2024-03-20 14:35:00,SystemResetWarning,0830.0,5.00,000.00,019.8,019.3,000.0,028.3,021.6,17.8,0000.0,0010.84,0002.92,0001.71
2024-03-20 14:36:00,SystemResetWarning,0830.0,5.00,000.00,019.8,019.3,000.0,028.3,021.6,18.0,0000.0,0010.80,0002.92,0001.71
2024-03-20 14:37:00,SystemResetWarning,0830.0,5.00,000.00,019.8,019.3,000.0,028.3,021.6,18.3,0000.0,0010.42,0002.94,0001.72
2024-03-20 14:38:00,SystemResetWarning,0830.0,5.01,000.00,019.8,019.3,000.0,028.3,021.6,18.3,0000.0,0009.89,0002.94,0001.73
2024-03-20 14:39:00,SystemResetWarning,0830.0,5.00,000.00,019.8,019.3,000.0,028.3,021.6,18.6,0000.0,0010.56,0002.93,0001.74
2024-03-20 14:40:00,SystemResetWarning,0830.0,4.99,000.00,019.8,019.3,000.0,028.3,021.6,18.6,0000.0,0011.26,0002.92,0001.77
2024-03-20 14:41:00,SystemResetWarning,0830.0,5.00,000.00,019.8,019.3,000.0,028.3,021.6,18.4,0000.0,0011.29,0002.92,0001.79
2024-03-20 14:42:00,SystemResetWarning,0830.0,5.00,000.00,019.8,019.3,000.0,028.3,021.6,18.5,0000.0,0011.35,0002.95,0001.81
2024-03-20 14:43:00,SystemResetWarning,0830.0,5.00,000.00,019.8,019.3,000.0,028.3,021.6,18.5,0000.0,0011.67,0002.97,0001.83
2024-03-20 14:44:00,SystemResetWarning,0830.0,5.00,000.00,019.8,019.3,000.0,028.3,021.6,18.7,0000.0,0010.77,0002.96,0001.84
2024-03-20 14:45:00,SystemResetWarning,0830.0,5.00,000.00,019.8,019.3,000.0,028.3,021.6,18.5,0000.0,0010.11,0002.97,0001.85
2024-03-20 14:46:00,SystemResetWarning,0830.0,5.00,000.00,019.9,019.3,000.0,028.3,021.7,18.2,0000.0,0009.73,0003.05,0001.86
2024-03-20 14:47:00,SystemResetWarning,0830.0,5.00,000.00,019.9,019.3,000.0,028.3,021.7,18.5,0000.0,0010.03,0003.05,0001.87
2024-03-20 14:48:00,SystemResetWarning,0830.1,5.00,000.00,019.9,019.3,000.0,028.3,021.7,18.4,0000.0,0010.47,0003.00,0001.87
2024-03-20 14:49:00,SystemResetWarning,0830.0,5.00,000.00,019.9,019.3,000.0,028.3,021.7,18.7,0000.0,0011.19,0003.09,0001.88
2024-03-20 14:50:00,SystemResetWarning,0830.1,5.00,000.00,019.9,019.3,000.0,028.3,021.7,18.6,0000.0,0010.95,0003.19,0001.89
2024-03-20 14:51:00,SystemResetWarning,0830.1,5.00,000.00,019.9,019.3,000.0,028.3,021.7,18.7,0000.0,0010.03,0003.20,0001.89
2024-03-20 14:52:00,SystemResetWarning,0830.1,4.99,000.00,019.9,019.3,000.0,028.3,021.7,18.2,0000.0,0009.59,0003.20,0001.86
2024-03-20 14:53:00,SystemResetWarning,0830.1,4.99,000.00,019.9,019.3,000.0,028.3,021.7,18.1,0000.0,0009.35,0003.19,0001.85
2024-03-20 14:54:00,SystemResetWarning,0830.1,5.00,000.00,019.9,019.3,000.0,028.3,021.7,18.1,0000.0,0009.15,0003.19,0001.84
2024-03-20 14:55:00,SystemResetWarning,0830.1,5.00,000.00,019.9,019.3,000.0,028.4,021.7,18.0,0000.0,0010.04,0003.21,0001.86
2024-03-20 14:56:00,SystemResetWarning,0830.1,5.01,000.00,019.9,019.3,000.0,028.4,021.7,17.9,0000.0,0010.20,0003.20,0001.86
2024-03-20 14:57:00,SystemResetWarning,0830.1,5.00,000.00,019.9,019.3,000.0,028.3,021.7,18.2,0000.0,0010.24,0003.18,0001.86
2024-03-20 14:58:00,SystemResetWarning,0830.1,5.01,000.00,019.9,019.3,000.0,028.4,021.7,18.3,0000.0,0010.36,0003.15,0001.84
2024-03-20 14:59:00,SystemResetWarning,0830.2,5.00,000.00,019.9,019.3,000.0,028.4,021.7,18.8,0000.0,0010.56,0003.22,0001.85
